| time (UTC) | temp F | wind direction | speed knots | gust knots | rain 1hr in | rain 24hr in | rain mn in | humidity % | barometer mb |
| 20260506223155 | 72 | 150 | 3.5 | 8.7 | 0.00 | 0.00 | 0.00 | 73 | 1010.0 |
| 20260506222255 | 74 | 146 | 2.6 | 8.7 | 0.00 | 0.00 | 0.00 | 73 | 1009.7 |
| 20260506221355 | 75 | 141 | 2.6 | 11.3 | 0.00 | 0.00 | 0.00 | 72 | 1009.7 |
| 20260506220455 | 76 | 155 | 2.6 | 7.8 | 0.00 | 0.00 | 0.00 | 73 | 1009.8 |
| 20260506215555 | 77 | 150 | 2.6 | 7.8 | 0.00 | 0.00 | 0.00 | 72 | 1009.7 |
| 20260506214655 | 78 | 155 | 2.6 | 9.6 | 0.00 | 0.00 | 0.00 | 71 | 1009.6 |
| 20260506213755 | 79 | 156 | 3.5 | 8.7 | 0.00 | 0.00 | 0.00 | 71 | 1009.4 |
| 20260506212855 | 80 | 165 | 1.7 | 10.4 | 0.00 | 0.00 | 0.00 | 70 | 1009.4 |
| 20260506211955 | 82 | 178 | 1.7 | 6.1 | 0.00 | 0.00 | 0.00 | 69 | 1009.5 |
| 20260506211055 | 81 | 161 | 1.7 | 6.1 | 0.00 | 0.00 | 0.00 | 72 | 1009.5 |
| 20260506210155 | 81 | 163 | 3.5 | 8.7 | 0.00 | 0.00 | 0.00 | 72 | 1009.5 |
| 20260506205255 | 81 | 152 | 2.6 | 10.4 | 0.00 | 0.00 | 0.00 | 72 | 1009.5 |
| 20260506204355 | 82 | 150 | 1.7 | 7.0 | 0.00 | 0.00 | 0.00 | 72 | 1009.5 |
| 20260506202555 | 82 | 154 | 1.7 | 4.3 | 0.00 | 0.00 | 0.00 | 74 | 1009.9 |
| 20260506201655 | 82 | 152 | 0.9 | 5.2 | 0.00 | 0.00 | 0.00 | 75 | 1009.9 |
| 20260506200755 | 82 | 166 | 0.9 | 3.5 | 0.00 | 0.00 | 0.00 | 74 | 1009.8 |
| 20260506195855 | 82 | 208 | 1.7 | 2.6 | 0.00 | 0.00 | 0.00 | 74 | 1009.7 |
| 20260506194955 | 83 | 224 | 0.9 | 4.3 | 0.00 | 0.00 | 0.00 | 74 | 1009.6 |
| 20260506194055 | 83 | 226 | 0.9 | 2.6 | 0.00 | 0.00 | 0.00 | 74 | 1009.7 |
| 20260506193155 | 83 | 202 | 0.9 | 3.5 | 0.00 | 0.00 | 0.00 | 73 | 1009.6 |
| 20260506192255 | 83 | 232 | 1.7 | 3.5 | 0.00 | 0.00 | 0.00 | 75 | 1009.7 |
| 20260506191355 | 83 | 268 | 1.7 | 6.1 | 0.00 | 0.00 | 0.00 | 74 | 1009.8 |
| 20260506184655 | 82 | 179 | 1.7 | 4.3 | 0.00 | 0.00 | 0.00 | 76 | 1010.1 |
| 20260506182855 | 81 | 217 | 0.9 | 4.3 | 0.00 | 0.00 | 0.00 | 76 | 1010.2 |
| 20260506181955 | 80 | 210 | 1.7 | 2.6 | 0.00 | 0.00 | 0.00 | 80 | 1010.1 |
| 20260506181055 | 78 | 270 | 0.9 | 5.2 | 0.00 | 0.00 | 0.00 | 80 | 1010.2 |
| 20260506175255 | 75 | 142 | 0.9 | 3.5 | 0.00 | 0.00 | 0.00 | 82 | 1010.4 |
| 20260506174355 | 75 | 176 | 0.9 | 3.5 | 0.00 | 0.00 | 0.00 | 82 | 1010.5 |
| 20260506173455 | 76 | 173 | 1.7 | 7.0 | 0.00 | 0.00 | 0.00 | 78 | 1010.6 |
| 20260506172555 | 81 | 219 | 1.7 | 9.6 | 0.00 | 0.00 | 0.00 | 74 | 1010.5 |
| 20260506170755 | 81 | 270 | 0.9 | 4.3 | 0.00 | 0.00 | 0.00 | 82 | 1010.4 |
| 20260506165855 | 80 | 244 | 0.9 | 1.7 | 0.00 | 0.00 | 0.00 | 85 | 1010.6 |
| 20260506164955 | 79 | 269 | 0.9 | 2.6 | 0.00 | 0.00 | 0.00 | 86 | 1010.7 |
| 20260506164055 | 79 | 283 | 0.9 | 3.5 | 0.00 | 0.00 | 0.00 | 86 | 1010.8 |
| 20260506163155 | 78 | 258 | 0.9 | 3.5 | 0.00 | 0.00 | 0.00 | 86 | 1011.0 |
| 20260506162255 | 78 | 198 | 0.0 | 3.5 | 0.00 | 0.00 | 0.00 | 88 | 1011.1 |
| 20260506160455 | 77 | 152 | 0.0 | 1.7 | 0.00 | 0.00 | 0.00 | 90 | 1011.1 |
| 20260506155555 | 76 | 207 | 0.0 | 0.9 | 0.00 | 0.00 | 0.00 | 90 | 1011.0 |
| 20260506154655 | 76 | 281 | 0.0 | 0.9 | 0.00 | 0.00 | 0.00 | 91 | 1010.8 |
| 20260506151955 | 76 | 280 | 0.0 | 1.7 | 0.00 | 0.00 | 0.00 | 92 | 1009.9 |
| 20260506151055 | 75 | 278 | 0.0 | 1.7 | 0.00 | 0.00 | 0.00 | 92 | 1009.9 |
| 20260506150155 | 75 | 0 | 0.0 | 0.0 | 0.00 | 0.00 | 0.00 | 92 | 1010.0 |
| 20260506145255 | 75 | 0 | 0.0 | 0.0 | 0.00 | 0.00 | 0.00 | 92 | 1009.8 |
| 20260506144355 | 75 | 0 | 0.0 | 0.0 | 0.00 | 0.00 | 0.00 | 92 | 1009.9 |
| 20260506143455 | 75 | 149 | 0.0 | 0.9 | 0.00 | 0.00 | 0.00 | 93 | 1009.8 |
| 20260506135855 | 74 | 276 | 0.0 | 2.6 | 0.00 | 0.00 | 0.00 | 93 | 1009.1 |
| 20260506134055 | 74 | 288 | 0.0 | 1.7 | 0.00 | 0.00 | 0.00 | 93 | 1008.7 |
| 20260506133155 | 74 | 282 | 0.9 | 2.6 | 0.00 | 0.00 | 0.00 | 93 | 1008.7 |
| 20260506132255 | 74 | 258 | 0.9 | 2.6 | 0.00 | 0.00 | 0.00 | 93 | 1008.7 |
| 20260506131355 | 74 | 277 | 0.9 | 3.5 | 0.00 | 0.00 | 0.00 | 93 | 1008.6 |
| 20260506130455 | 74 | 270 | 0.9 | 2.6 | 0.00 | 0.00 | 0.00 | 93 | 1008.6 |
| 20260506125555 | 74 | 270 | 0.9 | 2.6 | 0.00 | 0.00 | 0.00 | 93 | 1008.6 |
| 20260506124655 | 74 | 281 | 0.0 | 1.7 | 0.00 | 0.00 | 0.00 | 92 | 1008.7 |
| 20260506123755 | 74 | 33 | 0.0 | 1.7 | 0.00 | 0.00 | 0.00 | 92 | 1008.8 |
| 20260506121955 | 74 | 26 | 0.0 | 0.9 | 0.00 | 0.00 | 0.00 | 92 | 1008.5 |
| 20260506121055 | 74 | 338 | 0.0 | 0.9 | 0.00 | 0.00 | 0.00 | 92 | 1008.5 |
| 20260506115255 | 74 | 348 | 0.0 | 1.7 | 0.00 | 0.00 | 0.00 | 92 | 1008.2 |
| 20260506114355 | 74 | 325 | 0.0 | 1.7 | 0.00 | 0.00 | 0.00 | 92 | 1008.2 |
| 20260506113455 | 74 | 287 | 0.0 | 1.7 | 0.00 | 0.00 | 0.00 | 92 | 1008.2 |
| 20260506112555 | 74 | 274 | 0.0 | 1.7 | 0.00 | 0.00 | 0.00 | 92 | 1008.1 |
| 20260506111655 | 74 | 44 | 0.0 | 0.9 | 0.00 | 0.00 | 0.00 | 92 | 1008.2 |
| 20260506110755 | 74 | 39 | 0.0 | 1.7 | 0.00 | 0.00 | 0.00 | 92 | 1008.2 |
| 20260506104955 | 74 | 271 | 0.9 | 1.7 | 0.00 | 0.00 | 0.00 | 92 | 1008.0 |
| 20260506104055 | 74 | 4 | 0.0 | 2.6 | 0.00 | 0.00 | 0.00 | 92 | 1008.0 |
| 20260506103155 | 74 | 275 | 0.9 | 1.7 | 0.00 | 0.00 | 0.00 | 91 | 1008.0 |
| 20260506102255 | 74 | 351 | 0.9 | 2.6 | 0.00 | 0.00 | 0.00 | 91 | 1008.0 |
| 20260506101355 | 74 | 305 | 0.0 | 2.6 | 0.00 | 0.00 | 0.00 | 91 | 1008.1 |
| 20260506100455 | 74 | 15 | 0.9 | 2.6 | 0.00 | 0.00 | 0.00 | 91 | 1007.9 |
| 20260506095555 | 74 | 6 | 0.0 | 2.6 | 0.00 | 0.00 | 0.00 | 91 | 1007.8 |
| 20260506094655 | 74 | 335 | 0.0 | 2.6 | 0.00 | 0.00 | 0.00 | 91 | 1007.8 |
| 20260506092855 | 75 | 351 | 0.9 | 4.3 | 0.00 | 0.00 | 0.00 | 91 | 1007.6 |
| 20260506091955 | 75 | 335 | 0.9 | 4.3 | 0.00 | 0.00 | 0.00 | 90 | 1007.5 |
| 20260506091055 | 75 | 337 | 0.9 | 4.3 | 0.00 | 0.00 | 0.00 | 90 | 1007.7 |
| 20260506085255 | 75 | 327 | 0.9 | 3.5 | 0.00 | 0.00 | 0.00 | 90 | 1007.6 |
| 20260506084355 | 75 | 1 | 0.9 | 3.5 | 0.00 | 0.00 | 0.00 | 90 | 1007.5 |
| 20260506083455 | 75 | 32 | 0.0 | 3.5 | 0.00 | 0.00 | 0.00 | 90 | 1007.7 |
| 20260506082555 | 75 | 33 | 0.0 | 1.7 | 0.00 | 0.00 | 0.00 | 90 | 1007.7 |
| 20260506081655 | 75 | 25 | 0.0 | 2.6 | 0.00 | 0.00 | 0.00 | 90 | 1007.7 |
| 20260506073155 | 75 | 355 | 0.9 | 5.2 | 0.00 | 0.00 | 0.00 | 90 | 1007.9 |
| 20260506071355 | 75 | 332 | 0.9 | 3.5 | 0.00 | 0.00 | 0.00 | 90 | 1008.2 |
| 20260506070455 | 75 | 333 | 0.9 | 4.3 | 0.00 | 0.00 | 0.00 | 90 | 1008.1 |
| 20260506061955 | 75 | 278 | 0.0 | 2.6 | 0.00 | 0.00 | 0.00 | 90 | 1008.4 |
| 20260506061055 | 75 | 279 | 0.9 | 2.6 | 0.00 | 0.00 | 0.00 | 89 | 1008.4 |
| 20260506060155 | 75 | 337 | 0.9 | 2.6 | 0.00 | 0.00 | 0.00 | 89 | 1008.4 |
| 20260506050755 | 76 | 298 | 0.9 | 4.3 | 0.00 | 0.00 | 0.00 | 88 | 1008.3 |
| 20260506044055 | 76 | 318 | 1.7 | 6.1 | 0.00 | 0.00 | 0.00 | 87 | 1008.2 |
| 20260506043155 | 76 | 295 | 0.9 | 5.2 | 0.00 | 0.00 | 0.00 | 87 | 1008.2 |
| 20260506042255 | 77 | 314 | 0.9 | 3.5 | 0.00 | 0.00 | 0.00 | 87 | 1008.2 |
| 20260506041355 | 77 | 320 | 0.9 | 2.6 | 0.00 | 0.00 | 0.00 | 87 | 1008.1 |
| 20260506040455 | 77 | 335 | 0.9 | 3.5 | 0.00 | 0.00 | 0.00 | 87 | 1008.1 |
| 20260506035555 | 77 | 279 | 0.9 | 4.3 | 0.00 | 0.00 | 0.00 | 87 | 1008.0 |
| 20260506032855 | 77 | 300 | 1.7 | 6.1 | 0.00 | 0.00 | 0.00 | 86 | 1007.4 |
| 20260506031954 | 78 | 321 | 1.7 | 4.3 | 0.00 | 0.00 | 0.00 | 85 | 1007.3 |
| 20260506031055 | 78 | 310 | 1.7 | 6.1 | 0.00 | 0.00 | 0.00 | 85 | 1007.3 |
| 20260506030154 | 78 | 313 | 0.9 | 6.1 | 0.00 | 0.00 | 0.00 | 85 | 1007.1 |
| 20260506025255 | 78 | 285 | 0.9 | 3.5 | 0.00 | 0.00 | 0.00 | 84 | 1006.9 |
| 20260506024355 | 79 | 289 | 0.9 | 2.6 | 0.00 | 0.00 | 0.00 | 84 | 1006.8 |
| 20260506023455 | 79 | 278 | 0.9 | 4.3 | 0.00 | 0.00 | 0.00 | 84 | 1006.7 |
| 20260506022555 | 79 | 284 | 0.9 | 3.5 | 0.00 | 0.00 | 0.00 | 84 | 1006.7 |
| 20260506021655 | 79 | 274 | 0.9 | 5.2 | 0.00 | 0.00 | 0.00 | 83 | 1006.6 |
| 20260506020755 | 79 | 267 | 0.9 | 2.6 | 0.00 | 0.00 | 0.00 | 83 | 1006.4 |
| 20260506015855 | 80 | 273 | 0.9 | 4.3 | 0.00 | 0.00 | 0.00 | 82 | 1006.2 |
| 20260506014955 | 80 | 273 | 0.9 | 4.3 | 0.00 | 0.00 | 0.00 | 81 | 1006.1 |
| 20260506014055 | 80 | 271 | 0.0 | 3.5 | 0.00 | 0.00 | 0.00 | 80 | 1006.1 |
| 20260506012255 | 81 | 266 | 0.0 | 0.9 | 0.00 | 0.00 | 0.00 | 79 | 1005.8 |
| 20260506011355 | 81 | 261 | 0.0 | 1.7 | 0.00 | 0.00 | 0.00 | 79 | 1005.9 |
| 20260506010455 | 81 | 250 | 0.0 | 1.7 | 0.00 | 0.00 | 0.00 | 78 | 1005.8 |
| 20260506005554 | 82 | 250 | 0.0 | 0.9 | 0.00 | 0.00 | 0.00 | 78 | 1005.7 |
| 20260506004655 | 82 | 250 | 0.0 | 0.9 | 0.00 | 0.00 | 0.00 | 77 | 1005.6 |
| 20260506002854 | 82 | 249 | 0.0 | 1.7 | 0.00 | 0.00 | 0.00 | 77 | 1005.6 |
| 20260506001954 | 82 | 266 | 0.9 | 2.6 | 0.00 | 0.00 | 0.00 | 76 | 1005.5 |
| 20260506001054 | 83 | 357 | 0.9 | 2.6 | 0.00 | 0.00 | 0.00 | 76 | 1005.5 |
| 20260506000154 | 83 | 291 | 0.9 | 2.6 | 0.00 | 0.00 | 0.00 | 75 | 1005.4 |
| 20260505234355 | 84 | 276 | 1.7 | 4.3 | 0.00 | 0.00 | 0.00 | 74 | 1005.3 |
| 20260505232555 | 85 | 10 | 0.9 | 1.7 | 0.00 | 0.00 | 0.00 | 73 | 1005.1 |
| 20260505231654 | 84 | 299 | 1.7 | 4.3 | 0.00 | 0.00 | 0.00 | 73 | 1005.0 |
| 20260505230754 | 84 | 293 | 1.7 | 4.3 | 0.00 | 0.00 | 0.00 | 72 | 1005.1 |
| 20260505225854 | 85 | 313 | 1.7 | 6.1 | 0.00 | 0.00 | 0.00 | 73 | 1005.0 |
| 20260505224955 | 85 | 324 | 1.7 | 6.1 | 0.00 | 0.00 | 0.00 | 72 | 1005.1 |